Regional Weather Roundup
Issued by NWS Upton, NY

Current Version | Previous Version | Text Only | Print | Product List | Glossary On
Versions: 1 2 3 4 5 6 7 8 9 10 11 12 13 14 15 16 17 18 19 20 21 22 23 24 25 26 27 28 29 30 31 32 33 34 35 36 37 38 39 40 41 42 43 44 45 46 47 48 49 50
141 ASUS41 KOKX 251108 RWROKX REGIONAL WEATHER ROUNDUP NATIONAL WEATHER SERVICE NEW YORK NY 700 AM EDT SUN SEP 25 2016 NOTE: "FAIR" INDICATES FEW OR NO CLOUDS BELOW 12,000 FEET WITH NO SIGNIFICANT WEATHER AND/OR OBSTRUCTIONS TO VISIBILITY. NYZ071-072-176-178-NJZ106-104-251200- NEW YORK CITY METRO AREA CITY SKY/WX TMP DP RH WIND PRES REMARKS Central Park CLEAR 54 40 59 CALM 30.22R LaGuardia APRT CLEAR 58 42 55 N6 30.18R Kennedy INTL PTCLDY 53 40 61 NE3 30.19R Newark/Liberty CLEAR 52 42 69 N3 30.19R Bronx Bot Gard N/A 52 39 62 CALM 30.19F Wall St Helipt SUNNY 61 46 59 CALM 30.20R Teterboro CLEAR 52 40 63 CALM 30.19R $$ NYZ177-179-078>081-251200- LONG ISLAND NEW YORK CITY SKY/WX TMP DP RH WIND PRES REMARKS Farmingdale CLEAR 53 41 63 NW6 30.19R MacArthur/ISP CLEAR 51 43 74 N3 30.17R Shirley CLEAR 48 43 82 CALM 30.18R Riverhead NOT AVBL Westhampton CLEAR 40 37 89 NW3 30.19R Southampton N/A 55 43 62 N3 30.13R Bridgehampton N/A 54 43 66 E2 30.01R East Hampton FAIR 53 40 62 N6 30.15R Montauk N/A 55 42 61 N13G20 30.16R $$ NYZ052-065-067-251200- HUDSON VALLEY CITY SKY/WX TMP DP RH WIND PRES REMARKS White Plains CLEAR 48 40 73 N3 30.18R Newburgh CLEAR 41 39 93 NW5 30.20S Montgomery CLEAR 42 39 89 CALM 30.19S Poughkeepsie CLEAR 36 35 96 CALM 30.20R Albany PTCLDY 41 38 89 CALM 30.22R $$ NJZ001-105-106-008-010-013-015-019>022-104-251200- NEW JERSEY CITY SKY/WX TMP DP RH WIND PRES REMARKS Newark/Liberty CLEAR 52 42 69 N3 30.19R Teterboro CLEAR 52 40 63 CALM 30.19R Caldwell CLEAR 46 43 89 CALM 30.21R Morristown CLEAR 41 41 100 CALM 30.20R Somerville CLEAR 40 38 93 CALM 30.19S FOG Linden NOT AVBL Sussex CLEAR 38 38 100 CALM 30.21R Abdover N/A 41 40 96 CALM 30.21R Trenton CLEAR 49 41 74 N6 30.19S Millville CLEAR 49 47 93 N6 30.20R Atlantic City CLEAR 48 43 82 NW3 30.19R Wrightstown CLEAR 46 42 86 N7 30.17R Toms River CLEAR 46 43 89 N3 30.20R Belmar CLEAR 47 44 90 NW5 30.20R $$ PAZ047>061-062-071-251200- EASTERN PENNSYLVANIA CITY SKY/WX TMP DP RH WIND PRES REMARKS Philadelphia PTCLDY 53 42 66 N8 30.21R Allentown CLEAR 45 41 86 CALM 30.22R Scranton CLEAR 42 39 89 E5 30.22R $$ CTZ002-004>006-009-010-012-RIZ004-006-007-MAZ004-011-015-251200- SOUTHERN NEW ENGLAND IN CT CITY SKY/WX TMP DP RH WIND PRES REMARKS Bradley INTL CLEAR 42 38 85 CALM 30.18R Hartford CLEAR 42 41 96 CALM 30.18R Danbury CLEAR 39 37 92 SW3 30.20R Wtrbury/Oxford CLEAR 46 36 66 N7 30.20R Bridgeport CLEAR 52 40 63 NW5 30.18R Meriden CLEAR 42 38 85 CALM 30.18R New Haven CLEAR 46 39 76 CALM 30.18R Chester FAIR 46 41 81 CALM 30.17R Groton CLEAR 46 40 79 N5 30.16R Wilimantic FOG 41 41 100 CALM 30.18R VSB<1/4 IN RI CITY SKY/WX TMP DP RH WIND PRES REMARKS Providence CLEAR 50 36 58 NW8 30.15R Block Island CLEAR 53 40 61 N10G17 30.15R Westerly CLEAR 47 40 76 NW5 30.16R IN MA CITY SKY/WX TMP DP RH WIND PRES REMARKS Boston CLEAR 49 37 63 NW12 30.14R Worcester CLEAR 44 33 65 NW6 30.15R Westfield PTCLDY 37 36 96 CALM 30.18R Provincetown CLEAR 54 40 59 N15G24 30.10R Nantucket PTCLDY 55 39 54 N10 30.10R $$ ANZ330-335-338-340-345-350-353-355-251200- COASTAL MARINE OBSERVATIONS STATION/POSITION TIME SKY/WX TEMP WIND PRES VSBY WAVE AIR SEA DIR/SP/G HT/PER (UTC) (F) (DEG/KT/KT) (MB) (MI) (FT/S) NY HARB ENTRANCE 1050 61 72 10/ 16/ 19 1021.3 4/11 20S FIRE ISLAND 1050 62 71 10/ 16/ 19 1020.8 5/11 GREAT SOUTH BAY 1030 57 71 360/ 8/ 10 N/A 23 SSW MONTAUK P 1050 59 68 360/ 16/ 19 1021.0 4/10 15 E BARNEGAT LI 1030 71 N/A 5/11 HUDSON CANYON 0950 65 69 1019.5 5/10 KINGS POINT 1036 58 72 1021.9 EXECUTION ROCKS 1045 58 360/ 8/ 12 N/A CENTRAL LI SOUND 1015 58 72 360/ 14/ 17 N/A 1/ 2 EASTERN LI SOUND NOT AVBL ROBBINS REEF 1042 56 340/ 5/ 7 1022.4 $$ >>>>>>>>>>>>>>>>>>>>>>>>>>>> KEY <<<<<<<<<<<<<<<<<<<<<<<<<<< > < > SKY/WX - Sky Condition/Present Weather < > TMP - Temperature in Fahrenheit < > DP - Dew Point in Fahrenheit < > RH - Relative Humidity in Percent < > WIND - Direction (from) and Speed in MPH < > PRES - Mean Sea Level Pressure (inches of Hg) < > WCI - Wind Chill Index < > VSB - VISIBILITY IN MILES < > HX - HEAT INDEX < > TC - TEMPERATURE IN CELSIUS < > VRB - VARIABLE WIND DIRECTION < > < >>>>>>>>>>>>>>>>>>>>>>>>>>>> KEY <<<<<<<<<<<<<<<<<<<<<<<<<<<

USA.gov is the U.S. government's official web portal to all federal, state and local government web resources and services.